AO-07 1 07530U 74089B 17138.56196139 -.00000025 00000-0 12340-3 0 9994 2 07530 101.6279 107.8331 0012315 021.7117 091.7238 12.53626898944914 UO-11 1 14781U 84021B 17138.61271478 .00000079 00000-0 16016-4 0 9996 2 14781 097.7001 185.4125 0007145 302.1367 057.9153 14.82891985764969 LO-19 1 20442U 90005G 17138.53596832 .00000018 00000-0 22519-4 0 9999 2 20442 098.5743 075.3536 0010760 232.3346 127.6863 14.32859232427315 HUBBLE 1 20580U 90037B 17138.58943510 .00000484 00000-0 18823-4 0 9991 2 20580 028.4689 203.0959 0002570 210.6653 279.8264 15.08763295285727 MET-2/21 1 22782U 93055A 17138.53121139 .00000035 00000-0 18362-4 0 9990 2 22782 082.5517 047.1217 0022939 151.0558 322.1127 13.83801983197327 AO-27 1 22825U 93061C 17138.45547870 .00000011 00000-0 22025-4 0 9995 2 22825 098.8097 103.6756 0009438 061.8779 298.3356 14.29995688232882 IO-26 1 22826U 93061D 17138.49335768 .00000007 00000-0 20139-4 0 9990 2 22826 098.8039 103.7995 0009878 052.9411 307.2673 14.30324207233087 FO-29 1 24278U 96046B 17138.58677588 -.00000046 00000-0 -12212-4 0 9996 2 24278 098.5683 025.7778 0351280 054.1957 309.1297 13.53076517024623 NOAA-15 1 25338U 98030A 17138.60073478 .00000055 00000-0 42020-4 0 9998 2 25338 098.7827 149.4514 0009458 295.4637 064.5563 14.25792267988520 GO-32 1 25397U 98043D 17138.39481683 -.00000007 00000-0 16003-4 0 9994 2 25397 098.6080 081.3627 0002467 087.2970 272.8491 14.23621705979333 ISS 1 25544U 98067A 17138.53789694 .00010471 00000-0 16649-3 0 9993 2 25544 051.6431 186.1005 0005417 167.7458 303.2068 15.53904648057142 NO-44 1 26931U 01043C 17138.53224233 -.00000039 00000-0 16944-4 0 9994 2 26931 067.0496 167.7106 0008048 269.9971 090.0208 14.30459815816033 SO-50 1 27607U 02058C 17138.58436983 .00000006 00000-0 21326-4 0 9997 2 27607 064.5555 216.0218 0030617 111.8950 248.5412 14.75322016774618 CO-55 1 27844U 03031E 17138.59384501 .00000060 00000-0 46685-4 0 9996 2 27844 098.6900 148.0306 0010975 075.3280 284.9114 14.22035802720070 CO-57 1 27848U 03031J 17138.58559907 .00000044 00000-0 40132-4 0 9996 2 27848 098.6993 148.2688 0010910 083.6264 276.6156 14.21650561719968 RS-22 1 27939U 03042A 17138.56655187 .00000164 00000-0 37999-4 0 9994 2 27939 097.9348 284.2694 0012069 325.4508 103.1573 14.66560169728834 NOAA-18 1 28654U 05018A 17138.58355738 -.00000009 00000-0 20212-4 0 9994 2 28654 099.1842 160.0718 0014929 151.2105 208.9892 14.12336888617986 CO-58 1 28895U 05043F 17138.43018443 .00000166 00000-0 40799-4 0 9997 2 28895 097.8618 302.0996 0015700 234.8464 125.1268 14.63388021615908 Falconsat-3 1 30776U 07006E 17138.51618910 .00002849 00000-0 91370-4 0 9994 2 30776 035.4356 254.8321 0002300 046.1540 313.9375 15.32093485563703 CO-65 1 32785U 08021C 17138.51762843 .00000278 00000-0 36023-4 0 9997 2 32785 097.5686 164.1422 0011510 266.2928 093.6973 14.87869934490415 AAUSAT2 1 32788U 08021F 17138.56047125 .00000465 00000-0 48907-4 0 9996 2 32788 097.5614 175.6585 0010844 223.7678 136.2684 14.93831267491155 DO-64 1 32789U 08021G 17138.16873915 .00001908 00000-0 13943-3 0 9991 2 32789 097.5620 197.0303 0012582 196.5927 163.4890 15.04770795492359 CO-66 1 32791U 08021J 17138.02811801 .00000470 00000-0 53930-4 0 9999 2 32791 097.5657 167.9458 0011936 251.2739 108.7184 14.90194342490573 RS-30 1 32953U 08025A 17138.42345615 .00000029 00000-0 13600-3 0 9991 2 32953 082.5035 258.1561 0018305 353.5424 006.5417 12.43076533407725 PRISM 1 33493U 09002B 17138.59311612 -.00000139 00000-0 -67775-5 0 9993 2 33493 098.1726 019.7745 0014837 174.9293 185.2079 14.95620314451353 NOAA-19 1 33591U 09005A 17138.58218781 .00000072 00000-0 64447-4 0 9993 2 33591 099.0901 104.9908 0014035 000.0970 000.0201 14.12180059426210 TISAT-1 1 36799U 10035E 17138.33469054 .00000463 00000-0 53640-4 0 9992 2 36799 098.0576 260.4645 0013756 068.5262 291.7421 14.90361026371132 JUGNU 1 37839U 11058B 17138.47551928 .00000329 00000-0 33306-4 0 9999 2 37839 019.9619 270.6375 0018853 215.9788 206.8101 14.12582742289386 SRMSAT 1 37841U 11058D 17138.48806667 .00000311 00000-0 25657-4 0 9997 2 37841 019.9732 311.6312 0011854 115.2264 267.5564 14.10574006288992 AO-71 1 37854U 11061E 17138.58188804 .00001280 00000-0 76312-4 0 9992 2 37854 101.7073 357.1513 0167980 162.5448 198.1634 15.03963366302036 HRBE 1 37855U 11061F 17138.57131990 .00001345 00000-0 78361-4 0 9994 2 37855 101.7199 354.9583 0181171 168.9141 191.6145 15.02918849301877 ALMASAT-1 1 38078U 12006B 17138.63397994 .00016206 37034-5 18710-3 0 9992 2 38078 069.4392 211.7950 0315615 333.9770 024.5818 15.20918962280291 HORYU-2 1 38340U 12025D 17138.58474716 .00000251 00000-0 45100-4 0 9992 2 38340 098.3765 141.4640 0012372 032.2444 327.9518 14.75321085258514 RS-40 1 38735U 12041C 17138.57977652 .00000012 00000-0 15505-4 0 9995 2 38735 082.4746 342.6523 0017639 092.5695 267.7403 12.42574357217993 BEESAT-3 1 39134U 13015E 17138.56591593 .00001412 00000-0 78677-4 0 9990 2 39134 064.8665 322.0648 0034387 275.9499 083.7708 15.17698800224604 BEESAT-2 1 39136U 13015G 17138.60400343 .00001243 00000-0 75955-4 0 9997 2 39136 064.8701 332.2216 0031678 286.7389 073.0260 15.15005023224409 ZACUBE-1 1 39417U 13066B 17138.56150504 .00000223 00000-0 34853-4 0 9990 2 39417 097.6322 182.2357 0059486 008.4810 351.7394 14.80690209188396 TRITON-1 1 39427U 13066M 17138.59744856 .00000218 00000-0 42671-4 0 9994 2 39427 097.6389 155.9358 0116011 083.6998 277.7406 14.67440120186511 GOMX-1 1 39430U 13066Q 17138.54226062 .00000227 00000-0 49772-4 0 9996 2 39430 097.6647 139.8407 0153063 136.2456 225.0995 14.58850068185424 LO-74 1 39440U 13066AA 17138.60862033 .00000243 00000-0 41054-4 0 9991 2 39440 097.6311 171.6909 0081714 037.3380 323.3471 14.75431654186533 AO-73 1 39444U 13066AE 17138.35313529 .00000301 00000-0 43900-4 0 9995 2 39444 097.6338 183.0527 0058580 006.0722 354.1188 14.81418247186602 SPROUT 1 39770U 14029E 17138.54006464 .00000759 00000-0 92575-4 0 9994 2 39770 097.8713 238.2050 0010886 069.7255 290.5142 14.86180361161739 DUCHIFAT-1 1 40021U 14033M 17138.27753828 .00000440 00000-0 51711-4 0 9997 2 40021 097.9202 051.3975 0014305 044.4094 315.8267 14.89852531158143 NANOSATCBR1 1 40024U 14033Q 17138.33331401 .00000370 00000-0 45114-4 0 9998 2 40024 097.9162 050.3878 0013563 045.5103 314.7220 14.89183082157582 EO-79 1 40025U 14033R 17138.29692713 .00000344 00000-0 43144-4 0 9992 2 40025 097.9145 049.4372 0013774 047.8502 312.3882 14.88393040158040 DTUSAT-2 1 40030U 14033W 17138.22734662 .00000328 00000-0 41753-4 0 9997 2 40030 097.9111 048.5117 0013135 043.2335 316.9910 14.88017223157992 EO-80 1 40032U 14033Y 17138.33549968 .00000316 00000-0 40506-4 0 9996 2 40032 097.9119 048.6261 0013086 043.3390 316.8853 14.87951921157480 ANTELSAT 1 40034U 14033AA 17138.61235474 .00000278 00000-0 49160-4 0 9995 2 40034 097.8632 023.4545 0059965 029.2823 331.1725 14.73677363156035 VELOX-1 1 40057U 14034E 17138.55989715 .00000276 00000-0 46693-4 0 9994 2 40057 098.1874 238.3350 0012017 147.1173 213.0786 14.77094963155383 DAURIA DX 1 1 40071U 14037C 17138.53917554 .00000125 00000-0 23561-4 0 9995 2 40071 098.3344 248.4342 0009294 141.0660 219.1224 14.81004698154589 UKUBE-1 1 40074U 14037F 17138.54769954 .00000246 00000-0 37013-4 0 9999 2 40074 098.3440 252.1412 0005769 136.4474 223.7199 14.83472525154787 HODOYOSHI-1 1 40299U 14070B 17138.47208626 .00000723 00000-0 34495-4 0 9992 2 40299 097.4030 221.6633 0012849 189.7511 225.6676 15.22196631140429 CHUBUSAT-1 1 40300U 14070C 17138.48275781 .00000761 00000-0 37499-4 0 9991 2 40300 097.3959 218.9210 0019977 201.0859 254.9233 15.20789573140271 QSAT-EOS 1 40301U 14070D 17138.49704028 .00001531 00000-0 67437-4 0 9995 2 40301 097.3896 218.9080 0027327 198.1442 219.1879 15.23044165140317 FIREBIRD FU3 1 40377U 15003B 17138.55924971 .00003133 00000-0 13580-3 0 9992 2 40377 099.1223 316.6146 0137755 100.5205 261.1575 15.15209788126515 FIREBIRD FU4 1 40378U 15003C 17138.55190704 .00003046 00000-0 13199-3 0 9991 2 40378 099.1225 316.6408 0137948 100.4561 261.2244 15.15232266126518 GRIFEX 1 40379U 15003D 17138.42290568 .00002116 00000-0 98348-4 0 9994 2 40379 099.1236 314.3919 0143642 108.0029 253.6911 15.12821059126375 NO-84 1 40654U 15025D 17138.25510188 .00005886 00000-0 11561-3 0 04485 2 40654 054.9958 010.3432 0182973 189.4249 170.3356 15.32933035075305 NO-83 1 40655U 15025E 17138.14087010 .00011244 00000-0 17771-3 0 05000 2 40655 054.9824 348.3995 0150887 201.5529 157.9108 15.42171845075582 DEORBITSAIL 1 40719U 15032E 17138.22630940 .00000452 00000-0 72938-4 0 9992 2 40719 097.9837 032.3540 0015109 237.9798 121.9944 14.76023734099908 NUDT-PHONESAT 1 40900U 15049B 17138.53440341 .00002596 00000-0 12626-3 0 9998 2 40900 097.4437 146.8812 0013240 336.5698 023.4932 15.19231006091954 XW-2A 1 40903U 15049E 17138.59603353 .00002548 00000-0 68900-4 0 9995 2 40903 097.4236 163.9345 0015418 019.2422 340.9402 15.38585870093092 XW-2C 1 40906U 15049H 17138.57533511 .00000836 00000-0 48923-4 0 9995 2 40906 097.4551 144.6588 0014181 322.7116 037.3130 15.14476398091752 XW-2D 1 40907U 15049J 17138.56071444 .00000910 00000-0 52816-4 0 9996 2 40907 097.4519 144.4144 0013505 321.0948 038.9311 15.14575286091751 LILACSAT-2 1 40908U 15049K 17138.59438459 .00000454 00000-0 29258-4 0 9990 2 40908 097.4622 144.2513 0015031 317.8989 042.1087 15.13082220091699 XW-2F 1 40910U 15049M 17138.57988558 .00001327 00000-0 73590-4 0 9999 2 40910 097.4541 145.0699 0014253 318.4021 041.6126 15.15427660091797 XW-2B 1 40911U 15049N 17138.56608324 .00000885 00000-0 51491-4 0 9993 2 40911 097.4563 144.7806 0013404 321.4440 038.5834 15.14539086091655 DCBB 1 40912U 15049P 17138.55217264 .00001308 00000-0 68459-4 0 9995 2 40912 097.4511 146.7967 0014202 310.8254 165.9746 15.17514792091793 TW-1C 1 40926U 15051B 17138.48922123 .00005605 00000-0 13224-3 0 9995 2 40926 097.2320 178.2849 0009795 278.1519 189.6639 15.42241871092343 TW-1A 1 40928U 15051D 17138.52014881 .00002826 00000-0 83082-4 0 9997 2 40928 097.2290 174.8677 0011155 311.3624 188.2154 15.35879409092143 IO-86 1 40931U 15052B 17138.38882369 .00000645 00000-0 78236-6 0 9994 2 40931 005.9989 085.1717 0012833 182.6861 177.3196 14.76526624088550 GomX-3 1 40949U 98067HA 16292.18357804 .08527750 12374-4 77882-3 0 9992 2 40949 51.6055 106.7696 0006699 286.1344 73.8944 16.38002265 59645 LQSat 1 40958U 15057A 17138.49412942 .00000040 00000-0 14014-4 0 9997 2 40958 097.9787 214.3298 0018581 157.0860 203.1185 14.72962768086752 AO-85 1 40967U 15058D 17138.48102109 .00000092 00000-0 30086-4 0 04874 2 40967 064.7776 308.9862 0171917 088.9924 273.0860 14.75406365072733 ATHENOXAT-1 1 41168U 15077C 17138.52796887 .00001909 00000-0 70749-4 0 9992 2 41168 014.9871 026.1121 0012244 324.0749 235.4972 15.11482436078548 ChubuSat-2 1 41338U 16012B 17138.60156680 .00000424 00000-0 26639-4 0 9991 2 41338 031.0042 300.1586 0013789 127.1034 233.0863 14.99723713068544 ChubuSat-3 1 41339U 16012C 17137.66872245 .00000307 00000-0 17332-4 0 9999 2 41339 031.0123 305.2791 0013504 123.7687 236.4229 14.99929639068380 Horyu-4 1 41340U 16012D 17138.52024461 .00000630 00000-0 41907-4 0 9990 2 41340 031.0061 297.5565 0014072 140.8392 219.3264 15.00565800068556 OUFTI-1 1 41458U 16025C 17138.62159022 .00002246 00000-0 12340-3 0 9990 2 41458 098.1899 174.5024 0175707 029.1116 331.9766 15.03051019058146 e-st@r-II 1 41459U 16025D 17138.63952539 .00002329 00000-0 12839-3 0 9991 2 41459 098.1883 174.4788 0175667 029.0394 332.0462 15.02899679058133 AAUSAT4 1 41460U 16025E 17138.45433052 .00002464 00000-0 13579-3 0 9999 2 41460 098.1796 174.3665 0168632 028.1790 332.8472 15.03731336058129 MinXSS 1 41474U 98067HU 17125.52237589 .05724416 12300-4 86147-3 0 9995 2 41474 051.6449 208.6967 0008167 329.0747 030.9230 16.33400422055623 CADRE 1 41475U 98067HV 17003.74787607 .12518598 12537-4 55989-3 0 9998 2 41475 51.6110 110.0165 0004040 312.3134 47.7551 16.43344525 36494 NODES 1 1 41477U 98067HX 17138.42308241 .00050631 00000-0 28437-3 0 9999 2 41477 051.6280 157.6037 0005330 012.6022 347.5111 15.78722271057365 NODES 2 1 41478U 98067HY 17138.51914183 .00049305 00000-0 28222-3 0 9996 2 41478 051.6314 157.5086 0004922 013.3565 346.7565 15.78314402057371 LO-87 1 41557U 16033B 17138.52523011 .00001712 00000-0 67349-4 0 9998 2 41557 097.4640 218.0427 0016003 110.5198 249.7760 15.26935413053904 NuSat2 1 41558U 16033C 17138.35913688 .00001578 00000-0 62553-4 0 9995 2 41558 097.4666 217.9252 0015503 109.8576 250.4335 15.26809434053878 Lapan A3 1 41603U 16040E 17138.61279503 .00000189 00000-0 12201-4 0 9996 2 41603 097.4630 200.9452 0013644 170.7990 325.1062 15.19331051050168 Swayam 1 41607U 16040J 17138.25668507 .00001794 00000-0 84745-4 0 9991 2 41607 097.4627 200.8284 0014648 174.4725 185.6675 15.20650270050058 Pratham 1 41783U 16059A 17138.61153995 .00000065 00000-0 22149-4 0 9996 2 41783 098.1692 200.2869 0032348 252.7962 106.9697 14.62831568034278 AlSat 1N 1 41789U 16059G 17138.55617967 .00000086 00000-0 25669-4 0 9992 2 41789 098.1690 200.6746 0027008 247.2907 112.5445 14.64040054034273 ScatSat 1 41790U 16059H 17138.59300786 .00000000 00000-0 10928-4 0 9994 2 41790 098.0675 189.8890 0010243 233.9346 126.0901 14.50106288033977 TY-1 1 41844U 16066D 17138.56636726 .00000838 00000-0 39711-4 0 9995 2 41844 097.4057 146.1711 0015959 349.1754 124.8821 15.21962381028833 CAS-2T 1 41845U 16066E 17138.54026617 .00000087 00000-0 24384-4 0 9992 2 41845 098.7776 153.4596 0366389 336.4366 022.0403 14.37745796027235 Pegasus-1 1 41846U 16066F 17138.57898514 .00000333 00000-0 62045-4 0 9999 2 41846 098.7813 153.3117 0369216 337.4985 021.0353 14.36992172027229 STARS-C 1 41895U 98067KR 17138.37696794 .00016386 00000-0 20348-3 0 9992 2 41895 051.6380 183.7615 0002949 211.7206 148.3610 15.60149181023336 Tancredo 1 1 41931U 98067KT 17138.55757979 .00037689 00000-0 38355-3 0 9992 2 41931 051.6366 181.2054 0003381 139.5056 220.6191 15.64757125018959 ITF-2 1 41932U 98067KU 17138.39756525 .00010566 00000-0 14235-3 0 9997 2 41932 051.6400 184.6561 0004971 149.5741 210.5541 15.58432969018896 AOBA-V3LOX3 1 41935U 98067KX 17138.52130298 .00012572 00000-0 16666-3 0 9997 2 41935 051.6398 183.9810 0004217 153.0899 207.0313 15.58665556019014 OSNSAT 1 41939U 98067KZ 17138.39713113 .00022723 00000-0 26187-3 0 9997 2 41939 051.6381 183.1424 0004878 149.8468 210.2808 15.61850162018276 EO-88 1 42017U 17008BX 17138.53846658 .00001838 00000-0 81570-4 0 9990 2 42017 097.4976 200.0500 0005701 339.4636 020.6370 15.22849848013971 QB50-0 1 42700U 98067LH 17138.47901638 .00013963 00000-0 21154-3 0 9999 2 42700 051.6410 186.3760 0005413 219.2946 289.0576 15.54924329000325 QB50-1 1 42701U 98067LJ 17137.61703473 .00015104 00000-0 22834-3 0 9997 2 42701 051.6398 190.6800 0006000 211.6364 148.4267 15.54904485000176 QB50-2 1 42702U 98067LK 17137.38050131 .00001312 00000-0 26529-4 0 9990 2 42702 051.6394 191.8569 0001836 109.3634 004.7478 15.54700923000060 QB50-3 1 42703U 98067LL 17138.27617262 .00016805 00000-0 25438-3 0 9994 2 42703 051.6423 187.4014 0003608 161.8336 288.9768 15.54787578000194 QB50-4 1 42704U 98067LM 17138.47792291 .00007539 00000-0 11828-3 0 9995 2 42704 051.6330 186.4169 0001700 222.4698 278.2142 15.54761748000232 QB50-5 1 42705U 98067LN 17137.37875399 -.02459689 00000-0 -42501-1 0 9996 2 42705 051.6494 191.8702 0010788 197.9671 267.2667 15.54096936000128 QB50-6 1 42706U 98067LP 17137.44725628 .00193392 00000-0 27818-2 0 9991 2 42706 051.6328 191.5488 0000743 155.6461 331.0837 15.54868073000062 QB50-7 1 42707U 98067LQ 17138.20956539 .00023865 00000-0 35363-3 0 9996 2 42707 051.6431 187.6969 0004204 215.5498 222.0175 15.55116544000165 QB50-8 1 42708U 98067LR 17138.14012523 .00013042 00000-0 19823-3 0 9995 2 42708 051.6473 188.0621 0001354 089.3798 318.4101 15.54910336000131 /EX
